Location: Flotzheim
(48.8375°N, 10.8136°E)
Time: 04:07:37
(UTC+00:00)

CZ-4 R/B - Pass Details

Date: 23 January 2021
Orbit: 530 x 599 km, 97.7° (Epoch: 26 February)

Event Time Altitude Azimuth Distance (km) Brightness Sun altitude
Rises 17:51:41 0° 169° (S) 2,789 4.9 -18.1°
Reaches altitude 10° 17:53:51 10° 171° (S) 1,884 4.0 -18.4°
Maximum altitude 17:57:56 75° 258° (WSW) 594 1.5 -19.1°
Drops below altitude 10° 18:01:57 10° 343° (NNW) 1,858 4.1 -19.8°
Sets 18:04:05 0° 346° (NNW) 2,747 5.0 -20.1°
